Probability
0 0 0 0 0 0 0 0 0 0 0 0 0 0 0 0 0 0 0 1 2 2 1 1 2 3 3 4 4 4 3 2 1 0 0 0 0 0 0 0 0 0 0 0
0 0 0 0 0 0 0 0 0 0 0 0 0 0 0 0 0 0 0 0 1 1 0 1 2 3 3 4 4 4 4 2 1 0 0 0 0 0 0 0 0 0 0 0
0 0 0 0 0 0 0 0 0 0 0 0 0 0 0 0 0 0 0 0 0 0 0 0 1 2 3 4 5 5 5 2 1 1 0 0 0 0 0 0 0 0 0 0
0 0 0 0 0 0 0 0 0 0 0 0 0 0 0 0 0 0 0 0 0 0 0 0 0 1 2 3 5 6 5 3 2 2 1 1 1 0 0 0 0 0 0 0
0 0 0 0 0 0 0 0 0 0 0 0 0 0 0 0 0 0 0 0 0 0 0 0 0 0 1 3 4 5 4 3 3 3 3 2 2 1 0 0 0 0 0 0
0 0 0 0 0 0 0 0 0 0 0 0 0 0 0 0 0 0 0 0 0 0 0 0 0 0 1 2 3 3 3 3 3 3 3 3 2 1 0 0 0 0 0 0
0 0 0 0 0 0 0 0 0 0 0 0 0 0 0 0 0 0 0 0 0 0 0 0 0 0 0 1 1 2 3 3 3 3 3 3 2 1 0 0 0 0 0 0
0 0 0 0 0 0 0 0 0 0 0 0 0 0 0 0 0 0 0 0 0 0 0 0 0 0 0 0 0 1 2 2 2 2 2 1 1 0 0 0 0 0 0 0
0 0 0 0 0 0 0 0 0 0 0 0 0 0 0 0 0 0 0 0 0 0 0 0 0 0 0 0 0 0 1 1 1 1 1 0 0 0 0 0 0 0 0 0
0 0 0 0 0 0 0 0 0 0 0 0 0 0 0 0 0 0 0 0 0 0 0 0 0 0 0 0 0 0 0 0 0 0 0 0 0 0 0 0 0 0 0 0
0 0 0 0 0 0 0 0 0 0 0 0 0 0 0 0 0 0 0 0 0 0 0 0 0 0 0 0 0 0 0 0 0 0 0 0 0 0 0 0 0 0 0 0
0 0 0 0 0 0 0 0 0 0 0 0 0 0 0 0 0 0 0 0 0 0 0 0 0 0 0 0 0 0 0 0 0 0 0 0 0 0 0 0 0 0 0 0
0 0 0 0 0 0 0 0 0 0 0 0 0 0 0 0 0 0 0 0 0 0 0 0 0 0 0 0 0 0 0 0 0 0 0 0 0 0 0 0 0 0 0 0
0 0 0 0 0 0 0 0 0 0 0 0 0 0 0 0 0 0 0 0 0 0 0 0 0 0 0 0 0 0 0 0 0 0 0 0 0 0 0 0 0 0 0 0
0 0 0 0 0 0 0 0 0 0 0 0 0 0 0 0 0 0 0 0 0 0 0 0 0 0 0 0 0 0 0 0 0 0 0 0 0 0 0 0 0 0 0 0
0 0 0 0 0 0 0 0 0 0 0 0 0 0 0 0 0 0 0 0 0 0 0 0 0 0 0 0 0 0 0 0 0 0 0 0 0 0 0 0 0 0 0 0
0 0 0 0 0 0 0 0 0 0 0 0 0 0 0 0 0 0 0 0 0 0 0 0 0 0 0 0 0 0 0 0 0 0 0 0 0 0 0 0 0 0 0 0
0 0 0 0 0 0 0 0 0 0 0 0 0 0 0 0 0 0 0 0 0 0 0 0 0 0 0 0 0 0 0 0 0 0 0 0 0 0 0 0 0 0 0 0
0 0 0 0 0 0 0 0 0 0 0 0 0 0 0 0 0 0 0 0 0 0 0 0 0 0 0 0 0 0 0 0 0 0 0 0 0 0 0 0 0 0 0 0
0 0 0 0 0 0 0 0 0 0 0 0 0 0 0 0 0 0 0 0 0 0 0 0 0 0 0 0 0 0 0 0 0 0 0 0 0 0 0 0 0 0 0 0
0 0 0 0 0 0 0 0 0 0 0 0 0 0 0 0 0 0 0 0 0 0 0 0 0 0 0 0 0 0 0 0 0 0 0 0 0 0 0 0 0 0 0 0
0 0 0 0 0 0 0 0 0 0 0 0 0 0 0 0 0 0 0 0 0 0 0 0 0 0 0 0 0 0 0 0 0 0 0 0 0 0 0 0 0 0 0 0
0 0 0 0 0 0 0 0 0 0 0 0 0 0 0 0 0 0 0 0 0 0 0 0 0 0 0 0 0 0 0 0 0 0 0 0 0 0 0 0 0 0 0 0
0 0 0 0 0 0 0 0 0 0 0 0 0 0 0 0 0 0 0 0 0 0 0 0 0 0 0 0 0 0 0 0 0 0 0 0 0 0 0 0 0 0 0 0
0 0 0 0 0 0 0 0 0 0 0 0 0 0 0 0 0 0 0 0 0 0 0 0 0 0 0 0 0 0 0 0 0 0 0 0 0 0 0 0 0 0 0 0
0 0 0 0 0 0 0 0 0 0 0 0 0 0 0 0 0 0 0 0 0 0 0 0 0 0 0 0 0 0 0 0 0 0 0 0 0 0 0 0 0 0 0 0
Wind_Speed
2 3 2 5 7 5 3 3 5 5 3 2 6 9 9 6 5 6 6 6 6 7 5 4 3 3 3 3 3 3 3 2 2 2 2 2 2 1 1 1 1 1 1 2
2 3 6 3 2 2 2 3 5 5 3 3 5 10 9 6 7 8 8 8 8 6 4 3 3 3 4 4 4 4 4 4 3 3 3 2 2 2 2 1 1 1 1 2
6 4 2 2 1 2 4 5 6 5 4 3 3 8 6 5 5 6 6 6 6 7 7 6 5 5 4 5 5 4 4 4 3 2 1 1 1 0 0 1 1 2 2 2
3 3 1 2 3 4 6 4 4 4 2 4 1 6 8 5 4 6 7 6 6 6 6 6 5 5 5 5 4 4 3 3 3 3 3 3 3 2 3 2 2 2 2 2
4 2 2 4 5 4 5 3 3 4 3 4 2 4 9 2 5 6 6 6 5 5 5 5 6 6 5 4 4 3 3 3 3 3 3 3 2 2 1 1 2 2 2 2
4 2 2 3 3 3 2 2 2 1 1 5 7 6 9 5 7 5 4 5 5 4 4 4 3 2 2 2 2 2 3 3 3 3 3 4 3 2 2 1 2 2 2 2
4 4 2 1 1 2 1 2 2 4 2 8 4 6 10 6 5 6 5 5 4 3 2 2 2 2 2 2 2 3 3 3 2 2 3 3 3 4 4 3 3 2 2 2
2 5 3 2 3 4 3 5 5 5 5 6 3 8 8 4 3 2 2 2 2 2 2 3 3 3 2 2 2 3 3 3 2 2 2 2 2 2 2 3 3 3 2 2
4 5 2 2 2 4 3 3 3 3 1 4 6 6 7 2 1 2 1 2 2 3 2 2 2 1 1 2 2 2 2 1 1 1 1 1 1 2 2 2 1 2 1 2
3 3 4 3 2 1 3 3 2 3 3 6 6 5 5 3 3 3 2 2 3 2 2 1 1 1 1 1 1 1 1 1 1 0 1 1 1 1 1 1 1 1 1 1
2 3 3 1 4 5 2 2 3 3 4 4 5 7 4 4 3 3 4 3 3 2 2 1 1 0 0 1 1 1 1 1 1 1 0 0 0 0 0 0 1 1 1 1
2 2 3 6 4 2 4 5 5 4 5 4 5 9 2 2 2 2 3 3 3 2 1 1 0 1 1 1 1 1 1 1 0 0 1 1 1 1 1 0 1 1 1 1
4 3 1 5 3 1 3 3 3 3 3 4 5 9 2 2 3 2 2 3 2 2 2 1 1 1 0 0 1 1 1 0 0 1 1 1 1 1 1 1 1 1 0 1
3 3 6 9 6 4 5 6 5 4 4 6 10 10 8 6 5 5 4 3 2 1 1 1 1 1 1 1 1 1 1 1 1 1 1 1 1 1 1 1 1 1 1 1
3 4 6 8 6 5 8 10 9 10 10 10 11 11 12 9 7 6 4 3 2 2 2 1 2 2 1 1 1 1 1 1 0 1 1 0 1 1 1 1 1 1 1 1
3 3 2 6 5 7 11 12 12 13 11 12 12 14 10 7 4 4 4 3 3 4 3 3 2 2 2 2 2 1 1 1 0 1 0 1 1 1 1 1 1 1 1 1
3 4 2 5 4 5 11 11 12 10 10 10 14 15 7 5 6 5 4 3 4 5 4 3 3 3 3 3 2 2 1 1 0 0 1 1 1 1 1 1 1 1 1 1
7 5 3 2 2 9 10 3 7 10 10 10 9 8 7 8 5 3 2 3 4 3 3 3 3 3 2 2 1 1 0 0 0 1 1 1 1 1 1 1 1 2 1 1
7 7 4 3 5 11 10 5 5 6 9 8 10 10 7 4 2 4 2 2 3 3 3 2 2 2 2 2 1 0 1 0 0 0 1 1 1 1 1 1 2 2 2 2
3 4 5 4 5 10 9 4 3 2 8 6 7 8 6 1 3 5 2 2 2 2 1 1 1 1 1 1 0 1 0 0 1 1 2 1 1 1 1 1 1 2 1 2
4 4 7 8 8 12 8 4 2 5 8 3 4 5 4 5 6 3 1 2 1 1 2 1 1 1 1 1 1 1 0 1 2 1 1 1 1 1 1 1 1 1 1 2
9 7 8 6 8 13 3 3 6 7 3 2 2 3 4 5 4 2 2 1 1 1 1 1 1 2 2 1 1 0 1 1 1 1 1 1 2 1 1 0 1 1 1 1
9 9 7 10 10 4 4 6 5 3 3 3 3 3 3 3 3 3 2 1 1 1 1 1 1 1 2 2 1 1 2 2 2 1 1 2 2 1 1 0 1 1 1 1
5 3 4 6 8 6 6 4 3 3 3 3 3 3 3 3 3 3 2 1 1 1 1 1 1 1 2 3 2 1 1 2 1 1 1 1 1 1 1 1 1 1 1 2
6 4 4 7 7 5 5 5 4 3 2 2 2 1 2 3 3 3 2 2 1 1 1 0 0 1 2 2 2 2 2 1 1 1 1 1 1 1 1 1 1 2 2 2
5 6 7 9 5 5 6 4 3 3 3 3 3 2 1 2 2 2 1 1 1 1 1 1 1 1 2 1 2 2 2 1 1 1 1 1 1 1 1 1 2 3 3 4
Wind_Direction
54 85 199 220 213 213 200 217 255 264 278 260 253 265 268 259 248 240 238 228 228 232 234 221 205 194 182 180 180 188 182 187 170 173 183 191 207 215 212 206 207 225 222 193
59 241 239 232 214 216 236 258 277 292 291 255 271 274 269 246 236 230 225 226 227 235 248 236 215 197 198 197 197 196 193 189 188 194 199 198 202 213 212 207 226 235 226 204
189 235 227 184 201 220 251 237 254 273 311 299 306 295 274 259 236 241 233 226 220 216 222 227 220 212 207 205 203 201 200 190 188 180 152 115 90 45 242 232 229 242 230 212
231 256 182 177 225 212 246 243 248 263 290 276 228 282 276 256 259 245 239 230 229 228 223 220 214 212 207 206 200 192 188 183 180 171 169 173 185 209 229 226 228 229 221 216
245 221 191 218 237 210 232 252 241 242 233 271 252 245 277 269 260 256 247 238 239 234 222 220 214 209 207 196 190 187 176 178 180 184 183 186 205 223 226 222 220 222 220 216
251 252 219 223 254 221 204 12 352 17 99 256 227 213 271 232 228 240 245 244 243 236 224 222 218 205 210 194 182 181 175 188 188 191 190 192 202 204 198 218 223 227 226 223
289 271 267 226 318 315 110 102 2 337 298 249 221 214 250 241 223 214 226 244 248 229 205 203 194 201 206 189 188 190 181 195 198 198 202 203 206 203 205 210 216 225 231 236
238 272 246 231 202 199 210 174 183 220 241 276 256 231 253 257 241 230 237 264 282 250 216 207 201 196 195 188 186 191 193 201 198 201 216 218 213 211 220 220 219 222 227 235
201 253 287 259 246 171 179 209 195 165 273 272 259 275 296 288 317 322 310 338 298 269 251 228 208 183 179 182 191 184 184 198 202 201 206 223 220 221 234 233 227 229 240 240
173 248 277 296 317 274 193 170 131 170 203 256 276 261 254 265 262 281 297 292 287 293 297 293 231 176 184 182 161 128 133 173 204 181 205 225 227 231 234 213 222 239 248 242
165 187 279 290 214 215 184 190 186 186 194 204 261 264 233 230 229 231 253 265 274 276 273 267 255 203 109 61 77 97 85 72 51 48 20 0 314 322 229 225 245 249 258 238
177 155 245 252 256 242 215 207 176 190 242 218 234 263 265 235 256 236 258 276 290 282 277 274 130 78 71 61 48 55 62 71 61 62 63 49 35 49 56 359 317 298 282 264
148 134 327 324 307 300 245 230 215 202 201 209 219 258 305 339 316 300 277 289 301 316 334 0 43 57 32 357 4 13 27 13 28 67 67 49 33 36 28 349 342 339 324 313
128 170 201 222 235 216 251 255 227 188 213 234 234 255 284 294 291 294 287 281 284 299 309 346 337 303 297 309 316 338 338 340 33 79 83 49 6 358 347 358 359 350 353 344
136 215 238 256 265 250 247 247 229 219 219 226 247 248 260 259 257 261 272 280 291 302 301 288 284 285 292 308 311 325 331 341 19 89 78 6 351 5 11 9 1 358 354 341
164 205 236 269 271 272 266 253 237 235 234 240 256 263 259 260 260 259 267 268 273 272 266 265 277 289 290 283 277 279 291 308 316 134 106 1 14 18 16 2 358 7 4 348
178 161 182 263 301 323 269 237 223 223 222 218 236 249 262 262 256 247 248 253 255 263 266 268 270 266 268 271 260 251 270 314 16 97 31 16 6 359 352 351 7 2 340 329
174 167 181 236 25 247 249 219 210 220 235 229 238 253 249 247 250 242 232 238 258 266 266 270 280 287 291 293 283 260 20 75 118 74 25 355 345 341 352 355 348 338 333 302
191 173 172 180 237 270 280 248 202 215 248 234 238 251 262 273 293 276 278 265 255 261 262 256 264 281 290 287 276 110 73 69 84 1 311 309 305 310 332 322 322 328 332 316
171 166 171 180 212 246 257 248 224 191 265 245 224 238 246 213 237 258 273 304 304 307 302 297 311 322 305 289 145 128 186 235 289 289 290 298 291 266 270 287 306 318 313 309
165 186 202 207 228 257 261 266 149 193 252 250 212 224 219 212 230 248 257 291 303 324 340 349 351 337 311 316 118 161 235 278 297 321 339 341 333 301 288 307 318 315 327 336
183 187 201 192 219 249 243 155 192 231 271 255 227 221 225 236 250 249 246 264 296 332 347 356 4 354 355 9 49 293 293 322 5 14 9 350 340 331 323 335 327 329 328 316
202 197 193 200 220 239 185 205 232 237 245 252 241 240 224 235 242 246 254 258 274 283 319 355 8 358 0 9 16 294 329 5 21 27 7 345 340 339 334 303 303 326 305 280
236 211 204 238 253 255 254 260 276 265 250 265 261 245 219 225 239 251 249 257 261 283 308 357 28 358 342 355 3 4 359 8 24 9 346 344 351 346 348 323 287 272 268 273
215 189 216 247 270 293 266 255 265 275 288 297 290 254 218 209 234 237 250 258 250 279 333 26 351 304 324 346 352 9 16 24 14 351 343 343 342 329 332 331 306 294 275 257
193 189 202 234 232 231 258 260 244 239 257 250 246 264 268 222 225 228 244 247 237 273 328 354 346 319 322 339 340 351 2 22 33 347 345 334 324 323 328 339 341 332 315 306